Weather History for Abbotsford, BC

Change the Weather History Date:

Friday, January 18, 2013

  Actual Average Record
Temperature  
Mean Temperature 30 °F -  
Max Temperature 34 °F 45 °F 57 °F (2005)
Min Temperature 25 °F 32 °F 8 °F (2012)
Degree Days  
Heating Degree Days 36    
Moisture  
Dew Point 30 °F    
Average Humidity 99    
Maximum Humidity 100    
Minimum Humidity 93    
Precipitation  
Precipitation 0.00 in 0.23 in - ()
Sea Level Pressure  
Sea Level Pressure 30.33 in    
Wind  
Wind Speed 1 mph ()    
Max Wind Speed 7 mph    
Max Gust Speed -    
Visibility 1.0 miles    
Events Fog    
Averages and records for this station are not official NWS values.
T = Trace of Precipitation, MM = Missing Value Source: Averaged Metar Reports

Daily Weather History Graph

Daily Weather History Graph

Search for Another Location

Airport:

Trip Planner

Search our weather history database for the weather conditions in past years. The results will help you decide how hot, cold, wet, or windy it might be!

Date:

Astronomy

Jan. 18, 2013 Rise Set
Actual Time 7:55 AM PST 4:45 PM PST
Civil Twilight 7:19 AM PST 5:20 PM PST
Nautical Twilight 6:40 AM PST 5:59 PM PST
Astronomical Twilight 6:03 AM PST 6:37 PM PST
Moon 10:53 AM PST (1/18) 12:22 AM PST (1/18)
Length of Visible Light 10h 00m
Length of Day
8h 49m
Waxing Crescent, 48% of the Moon is Illuminated
Jan 18
Waxing Crescent
Jan 18
First Quarter
Jan 26
Full
Feb 3
Last Quarter
Feb 9
New

Hourly Weather History & Observations

Time (PST) Temp. Windchill Dew Point Humidity Pressure Visibility Wind Dir Wind Speed Gust Speed Precip Events Conditions
12:00 AM 26.6 °F 21.2 °F 26.6 °F 100% 30.31 in 10.0 mi North 4.6 mph - N/A   Partly Cloudy
1:00 AM 28.4 °F 24.6 °F 28.4 °F 100% 30.30 in 10.0 mi NNE 3.5 mph - N/A Fog Partly Cloudy
2:00 AM 26.6 °F - 26.6 °F 100% 30.31 in 7.0 mi Calm Calm - N/A Fog Patches of Fog
3:00 AM 26.6 °F - 26.6 °F 100% 30.30 in 0.5 mi Calm Calm - N/A Fog Light Freezing Fog
4:00 AM 27 °F - 26 °F 95% 30.30 in 0 mi Calm Calm - - Fog Heavy Fog
4:00 AM 26.6 °F - 26.6 °F 100% 30.30 in 0.5 mi Calm Calm - N/A Fog Light Freezing Fog
4:08 AM 26.6 °F - 26.6 °F 100% 30.30 in 0.2 mi Calm Calm - N/A Fog Light Freezing Fog
4:45 AM 26.6 °F - 26.6 °F 100% 30.30 in 0.1 mi Calm Calm - N/A Fog Light Freezing Fog
5:00 AM 26.6 °F - 24.8 °F 93% 30.30 in 0.2 mi Calm Calm - N/A Fog Light Freezing Fog
6:00 AM 26.6 °F - 26.6 °F 100% 30.29 in 0.2 mi NNE 2.3 mph - N/A Fog Light Freezing Fog
7:00 AM 28.4 °F - 26.6 °F 93% 30.29 in 0.2 mi Calm Calm - N/A Fog Light Freezing Fog
7:07 AM 28.4 °F - 26.6 °F 93% 30.29 in 0.1 mi Calm Calm - N/A Fog Light Freezing Fog
7:43 AM 28.4 °F - 28.4 °F 100% 30.31 in 0.2 mi Calm Calm - N/A Fog Light Freezing Fog
8:00 AM 28.4 °F - 28.4 °F 100% 30.31 in 0.2 mi Calm Calm - N/A Fog Light Freezing Fog
9:00 AM 28.4 °F - 28.4 °F 100% 30.31 in 0.1 mi Calm Calm - N/A Fog Light Freezing Fog
10:00 AM 29 °F - 29 °F 100% 30.33 in 0 mi Calm Calm - - Fog Heavy Fog
10:00 AM 30.2 °F - 28.4 °F 93% 30.33 in 0.2 mi Calm Calm - N/A Fog Light Freezing Fog
10:51 AM 30.2 °F 26.7 °F 30.2 °F 100% 30.35 in 0.5 mi ESE 3.5 mph - N/A Fog Light Freezing Fog
11:00 AM 30.2 °F - 30.2 °F 100% 30.35 in 0.5 mi Calm Calm - N/A Fog Light Freezing Fog
12:00 PM 32.0 °F 25.6 °F 32.0 °F 100% 30.34 in 0.4 mi East 6.9 mph - N/A Fog Light Freezing Fog
1:00 PM 32.0 °F - 32.0 °F 100% 30.33 in 0.4 mi Calm Calm - N/A Fog Fog
1:33 PM 33.8 °F - 33.8 °F 100% 30.33 in 0.5 mi Calm Calm - N/A Fog Fog
1:38 PM 33.8 °F - 33.8 °F 100% 30.33 in 0.8 mi NE 2.3 mph - N/A   Mist
2:00 PM 33.8 °F 29.6 °F 33.8 °F 100% 30.33 in 0.8 mi NE 4.6 mph - N/A   Overcast
2:30 PM 33.8 °F - 33.8 °F 100% 30.33 in 0.8 mi Calm Calm - N/A   Overcast
3:00 PM 33.8 °F - 33.8 °F 100% 30.33 in 0.8 mi NNE 2.3 mph - N/A   Mist
3:40 PM 33.8 °F - 33.8 °F 100% 30.33 in 0.6 mi Calm Calm - N/A   Mist
3:53 PM 33.8 °F - 33.8 °F 100% 30.33 in 0.5 mi Calm Calm - N/A Fog Fog
4:00 PM 34 °F - 34 °F 98% 30.34 in 0 mi Calm Calm - - Fog Heavy Fog
4:00 PM 33.8 °F - 33.8 °F 100% 30.33 in 0.4 mi Calm Calm - N/A Fog Fog
5:00 PM 32.0 °F 27.5 °F 32.0 °F 100% 30.34 in 0.2 mi ENE 4.6 mph - N/A Fog Fog
5:29 PM 32.0 °F 27.5 °F 32.0 °F 100% 30.34 in 0.2 mi East 4.6 mph - N/A Fog Light Freezing Fog
6:00 PM 32.0 °F 28.7 °F 32.0 °F 100% 30.34 in 0.2 mi NNE 3.5 mph - N/A Fog Light Freezing Fog
7:00 PM 30.2 °F 26.7 °F 30.2 °F 100% 30.35 in 0.2 mi ENE 3.5 mph - N/A Fog Light Freezing Fog
8:00 PM 30.2 °F - 30.2 °F 100% 30.35 in 0.2 mi NE 2.3 mph - N/A Fog Light Freezing Fog
9:00 PM 30.2 °F 25.4 °F 30.2 °F 100% 30.35 in 0.4 mi North 4.6 mph - N/A Fog Light Freezing Fog
10:00 PM 30 °F - 30 °F 100% 30.37 in 0 mi East 2.3 mph - - Fog Heavy Fog
10:00 PM 30.2 °F - 30.2 °F 100% 30.37 in 0.2 mi Calm Calm - N/A Fog Light Freezing Fog
11:00 PM 30.2 °F 26.7 °F 30.2 °F 100% 30.37 in 0.2 mi North 3.5 mph - N/A Fog Light Freezing Fog